Regional Weather Roundup
Issued by NWS Memphis, TN

Home | Current Version | Previous Version | Text Only | Print | Product List | Glossary On
Versions: 1 2 3 4 5 6 7 8 9 10 11 12 13 14 15 16 17 18 19 20 21 22 23 24 25 26 27 28 29 30 31 32 33 34 35 36 37 38 39 40 41 42 43 44 45 46 47 48 49 50
000
ASUS44 KMEG 061300
RWRMEG
MEMPHIS CWA HOURLY WEATHER ROUNDUP
NATIONAL WEATHER SERVICE MEMPHIS TN
700 AM CST SAT FEB 06 2016

...WEST TENNESSEE...

CITY           SKY/WX    TMP DP  RH WIND       PRES   REMARKS
MEMPHIS INTL   MOCLDY    35  25  66 CALM      30.38R
NWS MEMPHIS      N/A     31 N/A N/A MISG        N/A
JACKSON        CLEAR     25  23  92 CALM      30.38R
LEXINGTON      CLEAR     25  21  86 CALM      30.37R
DYERSBURG      PTCLDY    30  27  86 CALM      30.39R
UNION CITY     CLEAR     25  23  93 CALM      30.36R
PARIS          CLEAR     25  19  80 CALM      30.36S


...EASTERN ARKANSAS...

CITY           SKY/WX    TMP DP  RH WIND       PRES   REMARKS
JONESBORO      MOCLDY    30  26  85 CALM      30.37R
WEST MEMPHIS   PTCLDY    32  30  92 CALM      30.37R
BATESVILLE     MOCLDY    34  21  60 CALM      30.37R
WALNUT RIDGE   PTCLDY    28  25  86 CALM      30.36S
BLYTHEVILLE    CLEAR     34  26  72 S5        30.37S WCI  30
SEARCY         MOCLDY    27  26  96 CALM      30.39R
STUTTGART      CLEAR     36  27  69 CALM      30.37S
PINE BLUFF     CLOUDY    32  27  81 CALM      30.36S
MONTICELLO     CLOUDY    34  27  75 CALM      30.36R


...NORTH MISSISSIPPI...

CITY           SKY/WX    TMP DP  RH WIND       PRES   REMARKS
TUPELO         CLOUDY    34  30  85 CALM      30.38S
TUNICA         PTCLDY    32  30  93 CALM      30.40R
GREENWOOD      PTCLDY    34  26  72 CALM      30.37S
STARKVILLE     FAIR      32  32 100 CALM      30.39S
GOLDEN TRIANGL MOCLDY    34  28  80 CALM      30.38R


...SOUTHEAST MISSOURI...

CITY           SKY/WX    TMP DP  RH WIND       PRES   REMARKS
WEST PLAINS    MOCLDY    33  15  47 SW3       30.32R
POPLAR BLUFF   PTCLDY    25  22  88 CALM      30.35R
CAPE GIRARDEAU CLEAR     26  23  88 CALM      30.35R


...NORTHWEST ALABAMA...

CITY           SKY/WX    TMP DP  RH WIND       PRES   REMARKS
MUSCLE SHOALS  CLOUDY    32  28  85 CALM      30.40R


...MIDDLE TENNESSEE...

CITY           SKY/WX    TMP DP  RH WIND       PRES   REMARKS
NASHVILLE      PTCLDY    27  21  78 S3        30.39R
CLARKSVILLE    CLOUDY    26  23  88 SE3       30.37R
COLUMBIA       CLEAR     25  25 100 CALM      30.37R


...WESTERN KENTUCKY...

CITY           SKY/WX    TMP DP  RH WIND       PRES   REMARKS
PADUCAH        CLEAR     29  21  72 SW6       30.34S WCI  23
FORT CAMPBELL  CLOUDY    29  23  77 S3        30.36R


...CENTRAL ARKANSAS...

CITY           SKY/WX    TMP DP  RH WIND       PRES   REMARKS
LITTLE ROCK    CLOUDY    31  26  82 CALM      30.37R


SKY/WX REPORTED AS FAIR MEANS FEW OR NO CLOUDS BELOW
12 THOUSAND FEET.




USA.gov is the U.S. government's official web portal to all federal, state and local government web resources and services.